SR2WXM Weather Reports


time (UTC)temp
F
wind
direction
speed
knots
gust
knots
rain 1hr
in
rain 24hr
in
rain mn
in
humidity
%
barometer
mb
20260508023003 44 57 3.5 4.3 0.00 0.00 0.00 83 1015.2
20260508021501 44 331 3.5 5.2 0.00 0.00 0.00 82 1015.2
20260508020003 44 2 2.6 3.5 0.00 0.00 0.00 82 1015.2
20260508014502 44 0 1.7 2.6 0.00 0.00 0.00 82 1015.2
20260508013002 44 300 2.6 2.6 0.00 0.00 0.00 81 1015.2
20260508011503 44 25 2.6 4.3 0.00 0.00 0.00 82 1015.2
20260508010002 44 221 0.9 0.9 0.00 0.00 0.00 82 1015.2
20260508004502 44 246 2.6 4.3 0.00 0.00 0.00 81 1015.2
20260508003002 44 347 0.9 4.3 0.00 0.00 0.00 82 1015.2
20260508001503 44 38 1.7 3.5 0.00 0.00 0.00 82 1015.2
20260508000002 44 259 1.7 1.7 0.00 0.00 0.00 82 1015.2
20260507234504 46 299 0.9 0.9 0.00 0.00 0.00 81 1015.2
20260507233002 46 342 0.9 2.6 0.00 0.00 0.00 80 1015.2
20260507231502 46 251 1.7 2.6 0.00 0.00 0.00 80 1015.2
20260507230003 46 306 1.7 2.6 0.00 0.00 0.00 80 1015.2
20260507224502 46 255 1.7 2.6 0.00 0.00 0.00 81 1015.2
20260507223003 46 257 2.6 3.5 0.00 0.00 0.00 82 1015.2
20260507221502 46 287 7.0 8.7 0.00 0.00 0.00 81 1015.2
20260507220004 46 328 2.6 4.3 0.00 0.00 0.00 83 1015.2
20260507214503 46 238 0.9 2.6 0.00 0.00 0.00 82 1014.9
20260507213001 46 31 1.7 3.5 0.00 0.00 0.00 82 1014.9
20260507211503 46 344 3.5 4.3 0.00 0.00 0.00 81 1014.5
20260507210003 46 318 2.6 5.2 0.00 0.00 0.00 82 1014.5
20260507204502 46 322 2.6 4.3 0.00 0.00 0.00 81 1014.5
20260507203002 46 342 0.9 2.6 0.00 0.00 0.00 81 1014.5
20260507201501 46 12 5.2 7.0 0.00 0.00 0.00 80 1014.5
20260507200002 46 35 3.5 5.2 0.00 0.00 0.00 79 1014.2
20260507194502 46 342 7.0 8.7 0.00 0.00 0.00 78 1014.2
20260507193002 46 302 2.6 3.5 0.00 0.00 0.00 78 1014.2
20260507191502 46 359 3.5 5.2 0.00 0.00 0.00 78 1014.2
20260507190002 48 58 2.6 3.5 0.00 0.00 0.00 77 1014.2
20260507184504 48 358 3.5 4.3 0.00 0.00 0.00 76 1013.8
20260507183003 48 17 2.6 3.5 0.00 0.00 0.00 78 1013.8
20260507181503 48 315 5.2 7.8 0.00 0.00 0.00 78 1013.5
20260507180003 50 256 5.2 6.1 0.00 0.00 0.00 77 1013.2
20260507174502 50 0 7.0 7.8 0.00 0.00 0.00 76 1012.5
20260507173002 50 15 5.2 7.0 0.00 0.00 0.00 76 1012.5
20260507171503 50 359 5.2 7.8 0.00 0.00 0.00 76 1012.5
20260507170004 50 241 1.7 2.6 0.00 0.00 0.00 77 1012.1
20260507164502 50 268 2.6 5.2 0.00 0.00 0.00 75 1012.1
20260507163002 50 68 2.6 3.5 0.00 0.00 0.00 76 1012.1
20260507161507 50 247 3.5 5.2 0.00 0.00 0.00 78 1012.1
20260507160004 50 303 1.7 2.6 0.00 0.00 0.00 80 1012.5
20260507154503 50 283 1.7 2.6 0.00 0.00 0.00 80 1012.5
20260507153002 50 267 2.6 4.3 0.00 0.00 0.00 80 1012.5
20260507151502 50 337 5.2 6.1 0.00 0.00 0.00 78 1012.1
20260507150003 50 41 3.5 5.2 0.00 0.00 0.00 78 1012.1
20260507144502 50 281 0.9 1.7 0.00 0.00 0.00 79 1012.1
20260507143002 50 226 1.7 2.6 0.00 0.00 0.00 80 1012.5
20260507141504 50 278 2.6 3.5 0.00 0.00 0.00 80 1012.1
20260507140002 50 4 2.6 2.6 0.00 0.00 0.00 79 1012.1
20260507134503 50 22 4.3 6.1 0.00 0.00 0.00 82 1011.8
20260507133004 50 334 3.5 4.3 0.00 0.00 0.00 85 1011.8
20260507131502 48 48 1.7 2.6 0.00 0.00 0.00 83 1011.8
20260507130004 50 238 2.6 3.5 0.00 0.00 0.00 82 1011.8
20260507124502 48 8 2.6 2.6 0.00 0.00 0.00 85 1011.8
20260507123002 48 289 3.5 4.3 0.00 0.00 0.00 81 1011.8
20260507121503 48 243 0.9 2.6 0.00 0.00 0.00 81 1011.5
20260507120003 48 304 2.6 4.3 0.00 0.00 0.00 82 1011.5
20260507114503 48 338 2.6 3.5 0.00 0.00 0.00 82 1011.5
20260507113002 48 270 3.5 5.2 0.00 0.00 0.00 84 1011.5
20260507111504 48 38 2.6 3.5 0.00 0.00 0.00 85 1011.5
20260507110002 48 252 1.7 2.6 0.00 0.00 0.00 85 1011.5
20260507104502 48 316 2.6 4.3 0.00 0.00 0.00 86 1011.5
20260507103002 46 19 1.7 2.6 0.00 0.00 0.00 86 1011.1
20260507101503 46 49 4.3 6.1 0.00 0.00 0.00 88 1011.1
20260507100002 48 171 2.6 6.1 0.00 0.00 0.00 85 1010.8
20260507094501 48 357 3.5 4.3 0.00 0.00 0.00 86 1010.8
20260507093002 48 235 2.6 3.5 0.00 0.00 0.00 85 1010.5
20260507091502 48 336 7.0 7.8 0.00 0.00 0.00 85 1010.5
20260507090004 48 271 3.5 5.2 0.00 0.00 0.00 86 1010.5
20260507084503 48 336 1.7 2.6 0.00 0.00 0.00 85 1010.5
20260507083002 46 236 2.6 5.2 0.00 0.00 0.00 86 1009.8
20260507081502 48 318 2.6 4.3 0.00 0.00 0.00 85 1009.4
20260507080003 46 6 5.2 7.0 0.00 0.00 0.00 85 1009.4
20260507074506 46 311 2.6 5.2 0.00 0.00 0.00 86 1009.1
20260507073003 46 278 2.6 3.5 0.00 0.00 0.00 87 1009.1
20260507071501 46 353 2.6 4.3 0.00 0.00 0.00 87 1008.8
20260507070005 46 357 5.2 7.8 0.00 0.00 0.00 88 1008.8
20260507064503 46 312 3.5 6.1 0.00 0.00 0.00 89 1008.8
20260507063001 46 331 4.3 7.0 0.00 0.00 0.00 89 1008.8
20260507061502 46 27 5.2 7.0 0.00 0.00 0.00 90 1008.8
20260507060002 46 345 5.2 6.1 0.00 0.00 0.00 89 1008.8
20260507054502 44 303 0.9 2.6 0.00 0.00 0.00 95 1008.4
20260507053003 44 283 7.0 9.6 0.00 0.00 0.00 96 1008.4
20260507051502 44 16 5.2 5.2 0.00 0.00 0.00 97 1008.4
20260507050002 44 336 1.7 2.6 0.00 0.00 0.00 99 1008.1
20260507044504 44 69 3.5 4.3 0.00 0.00 0.00 99 1007.7
20260507043002 44 351 5.2 5.2 0.00 0.00 0.00 99 1007.7
20260507041502 44 330 3.5 4.3 0.00 0.00 0.00 99 1007.7
20260507040002 44 265 4.3 7.0 0.00 0.00 0.00 99 1007.4
20260507034503 44 334 5.2 10.4 0.00 0.00 0.00 98 1006.7
20260507033003 46 300 3.5 4.3 0.00 0.00 0.00 98 1006.7
20260507031503 46 343 1.7 2.6 0.00 0.00 0.00 97 1006.7
20260507030003 46 261 2.6 3.5 0.00 0.00 0.00 98 1006.7
20260507024501 46 355 1.7 2.6 0.00 0.00 0.00 97 1006.7